Latest Coastal Weather Observations for Kingfish B

IDV60701

Issued at 11:51 am EDT Saturday 20 December 2014 (issued every 10 minutes, with the page automatically refreshed every 10 minutes)

About coastal observations | Map of coastal stations | Coastal observations for VIC | Marine services | Other Formats
Station Details ID: 400139 Name: KINGFISH B (PLATFORM) Lat: -38.60 Lon: 148.19 Height: 31.4 m
Data from the previous 72 hours. | See also: Recent months for locations in Victoria
Date/Time
EDT
Temp

°C
Wind Pressure Rain
since 9am
mm
Weather Cloud Vis
km
Sea
Height
m
Swell
Dir
 
Speed
knots
Gust
knots
hPa Trend Height
m
Period
s
Dir
20/11:50am 20.7 WSW 11 13 1017.5 - - - - - - - - -
20/11:40am 20.6 WSW 10 13 1017.5 - - - - - - - - -
20/11:30am 20.7 WSW 10 13 1017.5 - - - - - - - - -
20/11:20am 20.8 WSW 10 13 1017.5 - - - - - - - - -
20/11:10am 20.6 WSW 11 14 1017.5 - - - - - - - - -
20/11:00am 20.9 WSW 12 15 1017.5 - - - - - - - - -
20/10:50am 21.0 WSW 12 15 1017.4 - - - - - - - - -
20/10:40am 20.9 WSW 11 14 1017.3 - - - - - - - - -
20/10:30am 20.7 WSW 11 14 1017.4 - - - - - - - - -
20/10:20am 20.6 W 10 13 1017.4 - - - - - - - - -
20/10:00am 20.7 WSW 10 13 1017.2 - - - - - - - - -
20/09:50am 20.5 WSW 11 14 1017.2 - - - - - - - - -
20/09:40am 20.6 WSW 12 15 1017.2 - - - - - - - - -
20/09:30am 20.3 WSW 11 14 1017.1 - - - - - - - - -
20/09:20am 20.1 WSW 11 14 1017.0 - - - - - - - - -
20/09:10am 20.1 WSW 12 14 1016.9 - - - - - - - - -
20/08:50am 19.6 WSW 12 15 1016.8 - - - - - - - - -
20/08:40am 18.8 WSW 12 14 1016.8 - - - - - - - - -
20/08:30am 17.1 WSW 12 15 1016.7 - - - - - - - - -
20/08:20am 16.8 WSW 12 16 1016.6 - - - - - - - - -
20/08:10am 16.5 WSW 12 15 1016.5 - - - - - - - - -
20/07:50am 16.2 WSW 13 16 1016.3 - - - - - - - - -
20/07:40am 16.2 WSW 14 17 1016.2 - - - - - - - - -
20/07:30am 16.0 WSW 12 15 1016.1 - - - - - - - - -
20/07:20am 15.9 WSW 13 15 1016.1 - - - - - - - - -
20/07:10am 15.8 WSW 9 15 1016.2 - - - - - - - - -
20/07:00am 15.7 WSW 10 13 1016.2 - - - - - - - - -
20/06:50am 15.6 WSW 11 13 1016.2 - - - - - - - - -
20/06:40am 15.7 W 11 14 1016.2 - - - - - - - - -
20/06:30am 15.8 W 11 15 1016.2 - - - - - - - - -
20/06:20am 15.8 W 12 15 1016.2 - - - - - - - - -
20/06:10am 15.8 WSW 12 15 1016.2 - - - - - - - - -
20/06:00am 15.8 WSW 12 16 1016.1 - - - - - - - - -
20/05:50am 15.8 WSW 12 17 1016.0 - - - - - - - - -
20/05:40am 15.6 WSW 12 14 1015.8 - - - - - - - - -
20/05:30am 15.7 SW 12 15 1016.0 - - - - - - - - -
20/05:20am 16.1 WSW 13 19 1015.9 - - - - - - - - -
20/05:10am 16.0 WSW 11 14 1015.9 - - - - - - - - -
20/05:00am 15.8 WSW 10 12 1015.9 - - - - - - - - -
20/04:50am 15.8 WSW 8 12 1016.0 - - - - - - - - -
20/04:40am 15.8 WSW 10 13 1016.0 - - - - - - - - -
20/04:30am 15.9 WSW 11 13 1016.1 - - - - - - - - -
20/04:20am 15.7 WSW 11 13 1016.2 - - - - - - - - -
20/04:10am 15.6 WSW 11 15 1016.2 - - - - - - - - -
20/04:00am 15.5 WSW 11 14 1016.2 - - - - - - - - -
20/03:50am 15.6 WSW 11 14 1016.2 - - - - - - - - -
20/03:30am 15.6 WSW 13 16 1016.3 - - - - - - - - -
20/03:20am 15.6 WSW 13 16 1016.3 - - - - - - - - -
20/03:10am 15.6 WSW 13 16 1016.4 - - - - - - - - -
20/03:00am 15.6 WSW 13 18 1016.5 - - - - - - - - -
20/02:50am 15.6 WSW 14 17 1016.6 - - - - - - - - -
20/02:40am 15.6 WSW 14 17 1016.6 - - - - - - - - -
20/02:30am 15.5 SW 15 18 1016.8 - - - - - - - - -
20/02:20am 15.5 WSW 14 17 1016.8 - - - - - - - - -
20/02:10am 15.5 SW 14 16 1016.9 - - - - - - - - -
20/02:00am 15.6 WSW 15 17 1016.8 - - - - - - - - -
20/01:50am 15.6 WSW 15 18 1016.9 - - - - - - - - -
20/01:40am 15.7 SW 14 17 1017.0 - - - - - - - - -
20/01:30am 15.7 SW 13 17 1017.2 - - - - - - - - -
20/01:20am 15.6 WSW 14 18 1017.3 - - - - - - - - -
20/01:10am 15.5 SW 13 16 1017.5 - - - - - - - - -
20/01:00am 15.5 SW 14 17 1017.6 - - - - - - - - -
20/12:50am 15.5 SW 15 17 1017.6 - - - - - - - - -
20/12:40am 15.7 SW 15 19 1017.6 - - - - - - - - -
20/12:30am 15.8 SW 16 19 1017.5 - - - - - - - - -
20/12:20am 15.8 WSW 14 17 1017.7 - - - - - - - - -
20/12:10am 15.7 SW 15 18 1017.7 - - - - - - - - -
20/12:00am 15.8 SW 15 19 1017.7 - - - - - - - - -
 
Date/Time
EDT
Temp

°C
Wind Pressure Rain
since 9am
mm
Weather Cloud Vis
km
Sea
Height
m
Swell
Dir
 
Speed
knots
Gust
knots
hPa Trend Height
m
Period
s
Dir
19/11:50pm 15.7 SW 16 19 1017.7 - - - - - - - - -
19/11:40pm 15.8 SW 16 20 1017.8 - - - - - - - - -
19/11:30pm 15.7 SW 16 20 1017.9 - - - - - - - - -
19/11:20pm 15.7 SW 17 23 1017.8 - - - - - - - - -
19/11:10pm 15.8 SW 18 21 1017.7 - - - - - - - - -
19/11:00pm 15.9 SW 18 22 1017.9 - - - - - - - - -
19/10:50pm 15.9 SW 17 20 1017.8 - - - - - - - - -
19/10:40pm 16.1 SW 17 21 1018.0 - - - - - - - - -
19/10:30pm 16.1 SW 19 22 1017.9 - - - - - - - - -
19/10:20pm 16.1 SW 18 23 1017.7 - - - - - - - - -
19/10:10pm 16.2 SW 20 23 1017.9 - - - - - - - - -
19/10:00pm 16.2 SW 21 24 1017.7 - - - - - - - - -
19/09:50pm 16.2 SW 22 25 1017.8 - - - - - - - - -
19/09:40pm 16.2 SSW 22 25 1017.9 - - - - - - - - -
19/09:30pm 16.2 SSW 23 27 1017.7 - - - - - - - - -
19/09:20pm 16.1 SSW 23 26 1018.0 - - - - - - - - -
19/09:10pm 16.1 SSW 23 26 1018.0 - - - - - - - - -
19/09:00pm 16.3 SSW 22 27 1017.8 - - - - - - - - -
19/08:50pm 16.4 SW 21 25 1017.5 - - - - - - - - -
19/08:40pm 16.4 SSW 22 26 1017.4 - - - - - - - - -
19/08:30pm 16.3 SW 22 25 1017.2 - - - - - - - - -
19/08:20pm 16.4 SSW 22 25 1017.3 - - - - - - - - -
19/08:10pm 16.4 SSW 22 25 1017.2 - - - - - - - - -
19/08:00pm 16.4 SW 21 25 1017.0 - - - - - - - - -
19/07:50pm 16.2 SSW 20 25 1017.2 - - - - - - - - -
19/07:40pm 16.3 SSW 20 24 1017.0 - - - - - - - - -
19/07:30pm 16.3 SSW 22 26 1017.1 - - - - - - - - -
19/07:20pm 16.3 SSW 20 25 1017.0 - - - - - - - - -
19/07:10pm 16.3 SSW 22 25 1016.8 - - - - - - - - -
19/07:00pm 16.2 SSW 21 25 1016.8 - - - - - - - - -
19/06:50pm 16.1 SSW 20 25 1016.5 - - - - - - - - -
19/06:40pm 16.2 SSW 20 24 1016.5 - - - - - - - - -
19/06:30pm 16.1 SSW 18 22 1016.4 - - - - - - - - -
19/06:20pm 16.2 SSW 20 24 1016.5 - - - - - - - - -
19/06:10pm 16.3 SSW 19 23 1016.3 - - - - - - - - -
19/06:00pm 16.4 SSW 19 22 1016.3 - - - - - - - - -
19/05:50pm 16.6 SW 18 22 1016.1 - - - - - - - - -
19/05:40pm 16.5 SW 18 22 1016.0 - - - - - - - - -
19/05:30pm 16.5 SW 18 21 1016.1 - - - - - - - - -
19/05:20pm 16.3 SSW 19 23 1016.1 - - - - - - - - -
19/05:10pm 16.4 SSW 18 21 1016.0 - - - - - - - - -
19/05:00pm 16.3 SSW 18 21 1016.1 - - - - - - - - -
19/04:50pm 16.5 SSW 19 23 1016.1 - - - - - - - - -
19/04:30pm 16.5 SW 18 22 1016.0 - - - - - - - - -
19/04:20pm 16.3 SSW 18 22 1016.0 - - - - - - - - -
19/04:10pm 16.3 SSW 18 22 1016.0 - - - - - - - - -
19/04:00pm 16.2 SSW 19 23 1016.1 - - - - - - - - -
19/03:50pm 16.6 SW 18 22 1015.9 - - - - - - - - -
19/03:40pm 16.7 SW 19 24 1015.8 - - - - - - - - -
19/03:30pm 16.7 SW 19 23 1015.5 - - - - - - - - -
19/03:20pm 16.9 SW 18 22 1015.6 - - - - - - - - -
19/03:10pm 17.0 SW 19 24 1015.6 - - - - - - - - -
19/03:00pm 17.3 SW 19 22 1015.4 - - - - - - - - -
19/02:50pm 17.1 SW 19 23 1015.5 - - - - - - - - -
19/02:40pm 17.2 SW 18 21 1015.5 - - - - - - - - -
19/02:30pm 17.3 SW 17 20 1015.3 - - - - - - - - -
19/02:20pm 17.4 SW 17 20 1015.2 - - - - - - - - -
19/02:10pm 17.6 SW 17 20 1015.2 - - - - - - - - -
19/02:00pm 17.7 SW 18 23 1015.1 - - - - - - - - -
19/01:50pm 17.9 SW 18 21 1014.9 - - - - - - - - -
19/01:40pm 18.0 SW 18 22 1014.9 - - - - - - - - -
19/01:30pm 17.9 SW 17 21 1015.0 - - - - - - - - -
19/01:10pm 18.2 SW 16 19 1014.9 - - - - - - - - -
19/01:00pm 18.2 SW 16 20 1014.9 - - - - - - - - -
19/12:50pm 18.2 SW 17 21 1014.9 - - - - - - - - -
19/12:40pm 18.8 SW 16 19 1014.5 - - - - - - - - -
19/12:30pm 18.7 SW 15 18 1014.5 - - - - - - - - -
19/12:20pm 18.6 SW 15 19 1014.5 - - - - - - - - -
19/12:10pm 18.7 SW 17 22 1014.7 - - - - - - - - -
19/12:00pm 19.0 SW 17 21 1014.5 - - - - - - - - -
19/11:50am 19.6 SW 17 21 1014.3 - - - - - - - - -
19/11:40am 19.5 SW 15 18 1014.1 - - - - - - - - -
19/11:30am 19.7 SW 15 18 1014.0 - - - - - - - - -
19/11:20am 19.6 SW 16 19 1013.9 - - - - - - - - -
19/11:10am 19.5 SW 16 18 1013.9 - - - - - - - - -
19/11:00am 19.6 SW 16 21 1014.2 - - - - - - - - -
19/10:50am 19.9 SW 17 20 1014.0 - - - - - - - - -
19/10:40am 19.8 SW 17 20 1014.1 - - - - - - - - -
19/10:30am 19.0 SW 17 20 1014.1 - - - - - - - - -
19/10:20am 18.5 SW 18 21 1014.3 - - - - - - - - -
19/10:10am 17.5 SSW 17 21 1014.3 - - - - - - - - -
19/10:00am 18.0 SSW 17 21 1014.2 - - - - - - - - -
19/09:50am 19.1 SW 19 23 1013.8 - - - - - - - - -
19/09:40am 19.1 SW 17 22 1013.5 - - - - - - - - -
19/09:30am 18.8 SW 18 22 1013.7 - - - - - - - - -
19/09:20am 18.5 SW 16 19 1013.5 - - - - - - - - -
19/09:10am 18.9 SW 16 19 1013.3 - - - - - - - - -
19/09:00am 17.8 SW 15 19 1013.2 - - - - - - - - -
19/08:50am 16.9 SW 16 23 1013.1 - - - - - - - - -
19/08:40am 16.4 SSW 21 27 1013.3 - - - - - - - - -
19/08:30am 16.8 SSW 18 23 1013.1 - - - - - - - - -
19/08:20am 18.6 SW 18 22 1012.6 - - - - - - - - -
19/08:10am 18.6 SW 17 21 1012.3 - - - - - - - - -
19/08:00am 18.4 SW 17 20 1012.3 - - - - - - - - -
19/07:50am 17.6 SW 18 22 1012.4 - - - - - - - - -
19/07:40am 16.5 SW 18 23 1012.3 - - - - - - - - -
19/07:30am 16.0 SW 17 20 1011.9 - - - - - - - - -
19/07:20am 16.0 SW 18 21 1011.9 - - - - - - - - -
19/07:10am 16.0 SW 17 21 1011.5 - - - - - - - - -
19/07:00am 15.9 SW 19 23 1011.6 - - - - - - - - -
19/06:50am 15.7 SW 21 25 1011.2 - - - - - - - - -
19/06:40am 15.9 SW 20 24 1011.4 - - - - - - - - -
19/06:30am 15.9 SW 20 23 1011.6 - - - - - - - - -
19/06:20am 15.8 SW 20 23 1011.2 - - - - - - - - -
19/06:10am 16.0 SW 20 24 1011.5 - - - - - - - - -
19/05:50am 15.9 SW 22 26 1011.0 - - - - - - - - -
19/05:40am 15.9 SW 20 26 1010.8 - - - - - - - - -
19/05:30am 15.9 SW 22 25 1010.7 - - - - - - - - -
19/05:20am 16.0 SW 21 25 1010.7 - - - - - - - - -
19/05:10am 16.0 SW 19 24 1010.8 - - - - - - - - -
19/05:00am 16.0 SW 20 23 1010.2 - - - - - - - - -
19/04:50am 16.1 SW 20 24 1010.4 - - - - - - - - -
19/04:40am 16.1 SW 21 25 1010.6 - - - - - - - - -
19/04:30am 16.2 SW 21 25 1010.5 - - - - - - - - -
19/04:20am 16.1 SW 18 21 1010.2 - - - - - - - - -
19/04:10am 16.1 SW 20 24 1010.5 - - - - - - - - -
19/04:00am 15.8 SW 23 26 1009.7 - - - - - - - - -
19/03:50am 15.8 SW 23 27 1009.6 - - - - - - - - -
19/03:40am 15.9 SW 24 26 1009.5 - - - - - - - - -
19/03:30am 15.9 SW 21 25 1009.8 - - - - - - - - -
19/03:20am 15.9 SW 22 25 1009.7 - - - - - - - - -
19/03:10am 15.9 SW 23 26 1009.5 - - - - - - - - -
19/03:00am 15.9 SW 22 26 1009.4 - - - - - - - - -
19/02:50am 15.8 SW 23 26 1009.3 - - - - - - - - -
19/02:40am 15.8 SW 21 25 1009.2 - - - - - - - - -
19/02:30am 15.8 SW 21 25 1009.3 - - - - - - - - -
19/02:20am 15.9 SW 22 26 1009.2 - - - - - - - - -
19/02:10am 16.5 WSW 21 24 1009.3 - - - - - - - - -
19/02:00am 15.8 SW 22 25 1009.2 - - - - - - - - -
19/01:50am 15.7 WSW 21 26 1009.2 - - - - - - - - -
19/01:40am 15.6 SW 22 26 1009.3 - - - - - - - - -
19/01:30am 15.6 SW 22 26 1009.4 - - - - - - - - -
19/01:20am 15.6 SW 20 24 1009.6 - - - - - - - - -
19/01:10am 15.7 SW 20 24 1009.6 - - - - - - - - -
19/12:50am 15.7 SW 21 27 1009.6 - - - - - - - - -
19/12:40am 15.8 SW 20 23 1009.7 - - - - - - - - -
19/12:30am 15.7 SW 19 23 1009.7 - - - - - - - - -
19/12:20am 15.9 SW 16 21 1009.8 - - - - - - - - -
19/12:10am 15.9 WSW 16 20 1009.9 - - - - - - - - -
19/12:00am 15.8 SW 16 19 1010.0 - - - - - - - - -
 
Date/Time
EDT
Temp

°C
Wind Pressure Rain
since 9am
mm
Weather Cloud Vis
km
Sea
Height
m
Swell
Dir
 
Speed
knots
Gust
knots
hPa Trend Height
m
Period
s
Dir
18/11:50pm 15.9 SW 16 19 1010.2 - - - - - - - - -
18/11:40pm 16.0 SW 18 21 1010.3 - - - - - - - - -
18/11:30pm 15.9 SW 16 21 1010.1 - - - - - - - - -
18/11:20pm 15.9 SW 16 19 1010.0 - - - - - - - - -
18/11:10pm 15.9 WSW 14 17 1010.0 - - - - - - - - -
18/11:00pm 15.8 WSW 14 18 1010.1 - - - - - - - - -
18/10:50pm 15.5 WSW 11 14 1010.0 - - - - - - - - -
18/10:40pm 15.3 WSW 12 16 1009.8 - - - - - - - - -
18/10:30pm 15.2 SW 11 15 1009.5 - - - - - - - - -
18/10:20pm 15.5 WSW 11 17 1009.6 - - - - - - - - -
18/10:10pm 15.6 WSW 15 19 1009.6 - - - - - - - - -
18/10:00pm 15.9 WSW 16 20 1009.4 - - - - - - - - -
18/09:50pm 16.2 WSW 21 26 1009.2 - - - - - - - - -
18/09:40pm 16.5 WSW 22 27 1009.1 - - - - - - - - -
18/09:30pm 16.7 WSW 22 26 1009.1 - - - - - - - - -
18/09:20pm 16.7 WSW 21 27 1009.1 - - - - - - - - -
18/09:10pm 16.7 SW 19 27 1009.0 - - - - - - - - -
18/09:00pm 17.1 SW 15 20 1009.1 - - - - - - - - -
18/08:50pm 17.3 SW 16 20 1009.1 - - - - - - - - -
18/08:40pm 17.4 SW 15 23 1008.8 - - - - - - - - -
18/08:30pm 17.9 SW 19 27 1008.4 - - - - - - - - -
18/08:20pm 17.9 SSW 21 26 1007.9 - - - - - - - - -
18/08:10pm 17.6 SSW 21 24 1007.5 - - - - - - - - -
18/08:00pm 17.7 SSW 21 24 1007.5 - - - - - - - - -
18/07:50pm 17.6 SSW 18 22 1007.1 - - - - - - - - -
18/07:40pm 17.7 SSW 18 23 1007.0 - - - - - - - - -
18/07:30pm 17.6 SSW 19 23 1006.9 - - - - - - - - -
18/07:20pm 17.7 SSW 18 23 1006.7 - - - - - - - - -
18/07:10pm 17.7 SSW 17 21 1006.5 - - - - - - - - -
18/07:00pm 17.8 SSW 18 21 1006.3 - - - - - - - - -
18/06:50pm 17.9 SSW 18 21 1006.3 - - - - - - - - -
18/06:40pm 18.1 SSW 18 21 1006.3 - - - - - - - - -
18/06:30pm 18.1 SSW 20 23 1006.4 - - - - - - - - -
18/06:20pm 18.0 SSW 20 24 1006.1 - - - - - - - - -
18/06:10pm 18.3 SSW 23 25 1006.1 - - - - - - - - -
18/06:00pm 18.7 SSW 22 25 1006.0 - - - - - - - - -
18/05:50pm 18.8 SSW 22 25 1006.0 - - - - - - - - -
18/05:40pm 19.1 SSW 21 24 1005.8 - - - - - - - - -
18/05:30pm 20.1 SSW 20 23 1005.5 - - - - - - - - -
18/05:20pm 19.8 SSW 20 22 1005.4 - - - - - - - - -
18/05:10pm 20.0 SSW 18 20 1005.3 - - - - - - - - -
18/05:00pm 20.7 SSW 19 23 1005.0 - - - - - - - - -
18/04:50pm 20.3 SSW 17 20 1004.9 - - - - - - - - -
18/04:40pm 20.1 SSW 13 17 1004.8 - - - - - - - - -
18/04:30pm 19.7 SSW 12 15 1004.8 - - - - - - - - -
18/04:20pm 19.5 SSW 10 13 1004.9 - - - - - - - - -
18/04:10pm 19.6 SSW 11 15 1004.9 - - - - - - - - -
18/03:50pm 20.7 CALM 0 1 1004.1 - - - - - - - - -
18/03:40pm 20.9 CALM 0 1 1004.1 - - - - - - - - -
18/03:30pm 20.8 CALM 0 1 1004.0 - - - - - - - - -
18/03:20pm 20.5 NE 1 2 1004.0 - - - - - - - - -
18/03:10pm 20.1 NNE 1 3 1004.0 - - - - - - - - -
18/03:00pm 20.0 NNE 3 5 1003.9 - - - - - - - - -
18/02:50pm 20.1 NE 4 4 1003.8 - - - - - - - - -
18/02:40pm 20.3 NE 3 4 1003.9 - - - - - - - - -
18/02:30pm 20.2 NNE 4 5 1003.9 - - - - - - - - -
18/02:20pm 20.1 NNE 3 4 1004.0 - - - - - - - - -
18/02:10pm 20.1 NNE 4 5 1004.2 - - - - - - - - -
18/02:00pm 20.1 NNE 4 5 1004.3 - - - - - - - - -
18/01:50pm 20.1 NNE 4 5 1004.3 - - - - - - - - -
18/01:40pm 20.2 NNE 5 6 1004.4 - - - - - - - - -
18/01:30pm 20.2 NNE 5 5 1004.4 - - - - - - - - -
18/01:20pm 20.2 NNE 5 6 1004.5 - - - - - - - - -
18/01:10pm 20.3 NNE 5 6 1004.7 - - - - - - - - -
18/01:00pm 20.4 N 5 7 1004.7 - - - - - - - - -
18/12:50pm 20.5 N 5 7 1004.8 - - - - - - - - -
18/12:40pm 20.4 N 4 6 1004.8 - - - - - - - - -
18/12:30pm 20.4 N 3 6 1004.9 - - - - - - - - -
18/12:20pm 20.6 N 3 5 1005.0 - - - - - - - - -
18/12:10pm 20.7 N 4 6 1005.0 - - - - - - - - -
18/12:00pm 20.7 N 4 6 1005.0 - - - - - - - - -
18/11:50am 20.7 NNW 4 6 1005.1 - - - - - - - - -
18/11:40am 20.5 N 5 7 1005.0 - - - - - - - - -
18/11:30am 20.6 N 5 7 1005.0 - - - - - - - - -
18/11:20am 20.9 N 5 8 1005.1 - - - - - - - - -
18/11:10am 20.8 N 6 8 1005.1 - - - - - - - - -
18/11:00am 21.0 N 6 9 1005.2 - - - - - - - - -
18/10:50am 21.0 N 7 9 1005.4 - - - - - - - - -
18/10:40am 20.8 - 9 11 1005.5 - - - - - - - - -
18/10:30am 20.8 - 9 11 1005.5 - - - - - - - - -
18/10:20am 20.7 - 9 12 1005.6 - - - - - - - - -
18/10:10am 20.2 N 11 13 1005.6 - - - - - - - - -
18/10:00am 19.8 NNE 11 14 1005.7 - - - - - - - - -
18/09:40am 19.7 NNE 12 13 1005.8 - - - - - - - - -
18/09:30am 19.8 NNE 12 14 1005.9 - - - - - - - - -
18/09:20am 19.8 NNE 12 14 1005.9 - - - - - - - - -
18/09:10am 19.7 NNE 13 15 1006.0 - - - - - - - - -
18/09:00am 19.7 NNE 13 15 1006.2 - - - - - - - - -
18/08:50am 19.8 NNE 14 16 1006.1 - - - - - - - - -
18/08:40am 19.7 NNE 14 17 1006.2 - - - - - - - - -
18/08:30am 19.6 NNE 15 17 1006.2 - - - - - - - - -
18/08:20am 19.5 NNE 15 18 1006.1 - - - - - - - - -
18/08:10am 19.5 NNE 15 17 1006.1 - - - - - - - - -
18/08:00am 19.2 NNE 15 17 1006.2 - - - - - - - - -
18/07:50am 18.8 NNE 16 18 1006.2 - - - - - - - - -
18/07:40am 18.4 NNE 16 18 1006.2 - - - - - - - - -
18/07:30am 17.7 NNE 17 19 1006.1 - - - - - - - - -
18/07:20am 17.5 NNE 18 20 1006.1 - - - - - - - - -
18/07:10am 17.5 NE 18 20 1006.0 - - - - - - - - -
18/07:00am 17.4 NE 19 22 1006.0 - - - - - - - - -
18/06:50am 17.3 NE 20 24 1006.0 - - - - - - - - -
18/06:40am 17.3 NE 22 24 1006.0 - - - - - - - - -
18/06:30am 17.3 NE 22 25 1006.0 - - - - - - - - -
18/06:20am 17.2 NE 22 25 1005.9 - - - - - - - - -
18/06:10am 17.2 NE 21 24 1005.9 - - - - - - - - -
18/06:00am 17.1 NE 20 23 1005.9 - - - - - - - - -
18/05:40am 17.2 NE 16 20 1006.3 - - - - - - - - -
18/05:30am 17.1 NE 17 21 1006.3 - - - - - - - - -
18/05:20am 17.1 NE 17 20 1006.3 - - - - - - - - -
18/05:10am 17.1 NE 17 19 1006.2 - - - - - - - - -
18/05:00am 17.0 NE 17 20 1006.3 - - - - - - - - -
18/04:50am 17.0 NE 17 20 1006.3 - - - - - - - - -
18/04:40am 17.0 NE 17 20 1006.4 - - - - - - - - -
18/04:30am 17.0 NE 18 21 1006.5 - - - - - - - - -
18/04:20am 17.0 NNE 18 21 1006.6 - - - - - - - - -
18/04:10am 17.0 NE 17 19 1006.7 - - - - - - - - -
18/04:00am 16.9 NE 16 19 1006.8 - - - - - - - - -
18/03:50am 16.9 NE 14 18 1007.1 - - - - - - - - -
18/03:40am 16.8 NNE 14 17 1007.3 - - - - - - - - -
18/03:30am 16.8 NE 13 16 1007.4 - - - - - - - - -
18/03:10am 16.8 NE 12 14 1007.9 - - - - - - - - -
18/03:00am 16.8 NNE 10 14 1008.1 - - - - - - - - -
18/02:50am 16.7 NNE 10 13 1008.3 - - - - - - - - -
18/02:40am 16.7 NNE 9 13 1008.5 - - - - - - - - -
18/02:30am 16.6 NNE 8 10 1008.7 - - - - - - - - -
18/02:20am 16.6 NNE 7 10 1008.8 - - - - - - - - -
18/02:10am 16.5 NNE 7 10 1008.8 - - - - - - - - -
18/02:00am 16.2 NNE 7 10 1008.8 - - - - - - - - -
18/01:50am 16.1 NNE 7 10 1008.8 - - - - - - - - -
18/01:40am 16.1 NNE 7 9 1009.0 - - - - - - - - -
18/01:30am 16.0 NNE 6 8 1009.2 - - - - - - - - -
18/01:20am 15.9 NNE 6 8 1009.2 - - - - - - - - -
18/01:10am 15.9 NNE 6 8 1009.3 - - - - - - - - -
18/01:00am 15.8 NNE 6 8 1009.4 - - - - - - - - -
18/12:40am 15.6 NE 4 6 1009.6 - - - - - - - - -
18/12:30am 15.6 NNE 3 6 1009.7 - - - - - - - - -
18/12:20am 15.5 NE 2 5 1009.7 - - - - - - - - -
18/12:10am 15.5 NE 1 4 1009.8 - - - - - - - - -
18/12:00am 15.5 NE 1 3 1009.9 - - - - - - - - -
 
Date/Time
EDT
Temp

°C
Wind Pressure Rain
since 9am
mm
Weather Cloud Vis
km
Sea
Height
m
Swell
Dir
 
Speed
knots
Gust
knots
hPa Trend Height
m
Period
s
Dir
17/11:50pm 15.6 CALM 0 1 1010.0 - - - - - - - - -
17/11:40pm 15.7 CALM 0 2 1010.1 - - - - - - - - -
17/11:30pm 16.2 CALM 0 2 1010.1 - - - - - - - - -
17/11:20pm 15.6 CALM 0 1 1010.1 - - - - - - - - -
17/11:10pm 15.5 CALM 0 1 1010.1 - - - - - - - - -
17/11:00pm 15.5 CALM 0 1 1010.0 - - - - - - - - -
17/10:50pm 15.3 CALM 0 1 1010.0 - - - - - - - - -
17/10:40pm 15.1 CALM 0 1 1010.0 - - - - - - - - -
17/10:30pm 15.3 CALM 0 1 1009.9 - - - - - - - - -
17/10:20pm 15.3 CALM 0 1 1009.9 - - - - - - - - -
17/10:10pm 15.3 CALM 0 2 1009.8 - - - - - - - - -
17/10:00pm 15.4 S 1 3 1009.8 - - - - - - - - -
17/09:50pm 15.4 S 2 4 1009.8 - - - - - - - - -
17/09:40pm 15.5 S 3 6 1009.7 - - - - - - - - -
17/09:30pm 15.4 S 5 7 1009.7 - - - - - - - - -
17/09:20pm 15.5 S 4 7 1009.6 - - - - - - - - -
17/09:10pm 15.5 SSW 5 8 1009.5 - - - - - - - - -
17/09:00pm 15.6 S 6 8 1009.5 - - - - - - - - -
17/08:50pm 15.6 SSW 7 10 1009.3 - - - - - - - - -
17/08:40pm 15.6 S 7 10 1009.2 - - - - - - - - -
17/08:30pm 15.6 SSW 6 8 1009.2 - - - - - - - - -
17/08:10pm 15.5 S 7 11 1009.1 - - - - - - - - -
17/08:00pm 15.6 SSW 8 12 1009.0 - - - - - - - - -
17/07:50pm 15.6 S 9 12 1008.9 - - - - - - - - -
17/07:40pm 15.6 SSW 8 12 1008.9 - - - - - - - - -
17/07:30pm 15.6 SSW 9 12 1008.8 - - - - - - - - -
17/07:20pm 15.5 SSW 10 14 1008.7 - - - - - - - - -
17/07:10pm 15.5 SSW 11 14 1008.5 - - - - - - - - -
17/07:00pm 15.5 S 11 15 1008.5 - - - - - - - - -
17/06:50pm 15.5 S 10 13 1008.6 - - - - - - - - -
17/06:40pm 15.7 SSW 11 14 1008.7 - - - - - - - - -
17/06:20pm 15.6 SSW 12 15 1008.7 - - - - - - - - -
17/06:10pm 15.6 SSW 11 14 1008.7 - - - - - - - - -
17/06:00pm 15.9 SSW 11 14 1008.7 - - - - - - - - -
17/05:50pm 15.9 SSW 11 13 1008.7 - - - - - - - - -
17/05:40pm 15.9 SSW 11 14 1008.7 - - - - - - - - -
17/05:30pm 16.1 SSW 10 14 1008.7 - - - - - - - - -
17/05:20pm 16.3 SSW 11 14 1008.7 - - - - - - - - -
17/05:10pm 16.2 SSW 10 12 1008.7 - - - - - - - - -
17/05:00pm 16.7 SW 11 13 1008.6 - - - - - - - - -
17/04:50pm 16.8 SW 11 13 1008.6 - - - - - - - - -
17/04:40pm 16.6 SW 11 15 1008.7 - - - - - - - - -
17/04:30pm 16.6 SW 11 15 1008.7 - - - - - - - - -
17/04:20pm 16.7 SW 12 15 1008.7 - - - - - - - - -
17/04:10pm 16.6 SW 11 14 1008.6 - - - - - - - - -
17/04:00pm 16.7 SW 12 16 1008.8 - - - - - - - - -
17/03:50pm 16.8 SW 12 15 1008.7 - - - - - - - - -
17/03:40pm 16.9 SW 12 15 1008.5 - - - - - - - - -
17/03:30pm 16.9 SW 12 14 1008.6 - - - - - - - - -
17/03:20pm 17.1 SW 12 16 1008.6 - - - - - - - - -
17/03:10pm 17.1 SW 11 15 1008.7 - - - - - - - - -
17/03:00pm 17.2 SW 11 13 1008.5 - - - - - - - - -
17/02:50pm 17.3 SW 11 14 1008.6 - - - - - - - - -
17/02:40pm 17.4 SW 11 16 1008.6 - - - - - - - - -
17/02:30pm 17.5 SW 12 16 1008.6 - - - - - - - - -
17/02:20pm 17.7 SW 12 15 1008.6 - - - - - - - - -
17/02:10pm 17.9 SW 13 16 1008.5 - - - - - - - - -
17/02:00pm 18.1 SW 13 16 1008.3 - - - - - - - - -
17/01:50pm 18.1 SW 13 16 1008.4 - - - - - - - - -
17/01:40pm 18.3 SW 13 16 1008.5 - - - - - - - - -
17/01:30pm 18.4 SW 13 15 1008.5 - - - - - - - - -
17/01:20pm 18.4 SW 15 20 1008.3 - - - - - - - - -
17/01:10pm 18.5 SW 14 19 1008.3 - - - - - - - - -
17/01:00pm 18.6 SW 15 19 1008.1 - - - - - - - - -
17/12:50pm 18.5 SW 15 17 1008.0 - - - - - - - - -
17/12:40pm 18.5 SW 16 19 1007.9 - - - - - - - - -
17/12:30pm 18.6 SW 16 19 1007.7 - - - - - - - - -
17/12:20pm 18.6 SW 16 20 1007.8 - - - - - - - - -
17/12:10pm 18.9 SW 17 20 1007.6 - - - - - - - - -
17/12:00pm 18.8 SW 16 20 1007.4 - - - - - - - - -

Other Formats:

Comma delimited format used in spreadsheet applications
http://www.bom.gov.au/fwo/IDV60701/IDV60701.55039.axf

JavaScript Object Notation format (JSON) in row-major order
http://www.bom.gov.au/fwo/IDV60701/IDV60701.55039.json